Regional Weather Roundup
Issued by NWS

Home | Current Version | Previous Version | Graphics & Text | Print | Product List | Glossary On
Versions: 1 2 3 4 5 6 7 8 9 10 11 12 13 14 15 16 17 18 19 20 21 22 23 24 25 26 27 28 29 30 31 32 33 34 35 36 37 38 39 40 41 42 43 44 45 46 47 48 49 50
000
ASUS43 KMKX 290500
RWRWI

WISCONSIN REGIONAL WEATHER ROUNDUP
NATIONAL WEATHER SERVICE MILWAUKEE/SULLIVAN WI
1200 AM CDT MON MAY 29 2017

NOTE: "FAIR" INDICATES FEW OR NO CLOUDS BELOW 12,000 FEET WITH NO
SIGNIFICANT WEATHER AND/OR OBSTRUCTIONS TO VISIBILITY.

WIZ001-002-006>008-014>016-023>028-290600-
NORTHWEST WISCONSIN

CITY           SKY/WX    TMP DP  RH WIND       PRES   REMARKS
SUPERIOR ARPT  NOT AVBL
ASHLAND        CLOUDY    53  48  83 W7        29.63S
HAYWARD        CLEAR     51  46  83 SW5       29.67S
SIREN          PTCLDY    51  47  86 CALM      29.69S
CUMBERLAND     CLOUDY    52  46  82 W7        29.69S
RICE LAKE      CLOUDY    55  49  78 W3        29.69F
CHETEK         LGT RAIN  54  49  85 CALM      29.69F
LADYSMITH      PTCLDY    53  51  93 SW7       29.70S
EAU CLAIRE     NOT AVBL
MENOMONIE      CLOUDY    54  50  87 SW3       29.71F
NEW RICHMOND   CLEAR     50  49  96 SW6       29.72S
OSCEOLA        MOCLDY    53  53 100 SW10      29.74F
$$

WIZ003>005-009-010-017-018-290600-
NORTH CENTRAL WISCONSIN

CITY           SKY/WX    TMP DP  RH WIND       PRES   REMARKS
MANITOWISH WTR PTCLDY    50  50 100 SW5       29.64S
ARBOR VITAE    CLEAR     52  50  93 SW3       29.64F
WOODRUFF       CLEAR     52  50  93 SW3       29.64F
RHINELANDER    CLEAR     48  45  89 SW5       29.67F
EAGLE RIVER    CLOUDY    51  49  95 SW3       29.65S
LAND O LAKES   CLOUDY    50  50 100 CALM      29.66S
PHILLIPS       MOCLDY    51  49  93 SW8       29.66S
TOMAHAWK       CLEAR     50  46  87 W3        29.68F
MEDFORD        CLEAR     51  47  89 SW6       29.69S
MERRILL        CLEAR     51  47  88 W6        29.68F
$$

WIZ029-030-035-036-043>047-290600-
CENTRAL WISCONSIN

CITY           SKY/WX    TMP DP  RH WIND       PRES   REMARKS
WAUSAU         CLEAR     53  48  83 W9        29.68S
MOSINEE        CLEAR     50  50 100 SW7       29.71S
MARSHFIELD     PTCLDY    51  47  86 W3        29.70S
STEVENS POINT  CLEAR     54  47  79 SW5       29.71S
WAUPACA        CLEAR     56  49  76 SW5       29.71S
WAUTOMA        CLEAR     54  50  86 CALM      29.72F
WISC RAPIDS    CLEAR     50  46  86 CALM      29.72S
CAMP DOUGLAS   NOT AVBL
$$

WIZ011>013-019>022-031-037>040-048>050-290600-
NORTHEAST WISCONSIN

CITY           SKY/WX    TMP DP  RH WIND       PRES   REMARKS
ANTIGO         CLEAR     49  47  92 SW5       29.69S
SHAWANO        MOCLDY    60  48  65 CALM      29.69R
OCONTO         MOCLDY    53  52  96 CALM      29.65F
STURGEON BAY   CLEAR     55  53  93 SW7       29.66F
GREEN BAY      CLOUDY    61  49  64 SW5       29.68F
MANITOWOC      NOT AVBL
APPLETON       PTCLDY    57  43  58 SW5       29.68F
CLINTONVILLE   PTCLDY    59  45  58 CALM      29.69S
OSHKOSH        CLEAR     59  47  64 W3        29.70S
$$

WIZ032>034-041-042-053>061-290600-
SOUTHWEST WISCONSIN

CITY           SKY/WX    TMP DP  RH WIND       PRES   REMARKS
LA CROSSE      CLOUDY    59  51  75 S7        29.71F
SPARTA         PTCLDY    51  47  88 CALM      29.73F
VIROQUA        CLOUDY    60  43  53 CALM      29.74F
BOSCOBEL       CLEAR     54  49  83 SW3       29.75S
PRAIRIE DU CHI CLEAR     55  47  76 CALM      29.75S
PLATTEVILLE    CLEAR     60  48  63 SW6       29.77S
$$

WIZ056-057-062-063-064-067-068-290600-
SOUTH CENTRAL WISCONSIN

CITY           SKY/WX    TMP DP  RH WIND       PRES   REMARKS
REEDSBURG      CLEAR     55  48  75 CALM      29.73S
BARABOO/DELLS  CLEAR     58  44  59 SW3       29.73S
LONE ROCK      NOT AVBL
MINERAL POINT  CLEAR     61  45  55 SW7       29.76S
MADISON        CLEAR     57  47  69 CALM      29.73S
MIDDLETON      CLEAR     56  49  78 CALM      29.74F
WATERTOWN      CLEAR     52  50  92 CALM      29.73S
MONROE         PTCLDY    59  46  63 SW7       29.76S
JANESVILLE     MOCLDY    59  54  82 CALM      29.74F
$$

WIZ051-052-058>065-066-070>072-290600-
SOUTHEAST WISCONSIN

CITY           SKY/WX    TMP DP  RH WIND       PRES   REMARKS
MILWAUKEE      CLEAR     63  49  60 W6        29.72F
WAUKESHA       CLEAR     55  45  67 SW3       29.74F
MILWAUKEE/TIMM   N/A     59  45  58 CALM      29.73F
RACINE         CLEAR     59  47  64 SW6       29.75S
KENOSHA        CLEAR     55  47  74 SW6       29.74S
FOND DU LAC    CLEAR     58  45  62 W7        29.71S
SHEBOYGAN      CLEAR     56  51  84 SW5       29.69F
WEST BEND      PTCLDY    59  46  63 SW5       29.72F
JUNEAU         CLEAR     57  48  71 CALM      29.73F
$$

LSZ147-162-290600-
LAKE SUPERIOR

STATION/POSITION TIME  TEMP    WIND        PRES    WAVE
                       AIR SEA DIR/SP/G            HT/PER
                 (UTC) (F)     (DEG/KT/KT) (MB)    (FT/S)
W MID LAKE BUOY  0350   42 37  230/  8/  8 1002.7F   0
DEVILS ISLAND    0400   49     230/ 11/ 11 1002.9F
PORT WING        0440   56     220/  5/ 10 1003.4F
SAXON HARBOR     0430   54     200/  4/  6 1003.0S
$$

LMZ867-665-643>646-290600-
LAKE MICHIGAN

STATION/POSITION TIME  TEMP    WIND        PRES    WAVE
                       AIR SEA DIR/SP/G            HT/PER
                 (UTC) (F)     (DEG/KT/KT) (MB)    (FT/S)
CHAMBERS ISLAND  0440   53     210/  4/  5 1003.7F
N MID LAKE BUOY  0350   47 42  190/  6/  8 1005.2F   1
NORTHPORT PIER   0440   49     220/  5/  8 1003.7F
SISTER BAY       0406   50     150/  6/  8   N/A
ALGOMA LAKESHORE 0416             CALM       N/A
KEWAUNEE LAKESHO 0430   59      CALM  /  2 1004.7F
SHEBOYGAN LAKESH 0400   64     240/  7/  8 1005.4F
PORT WASHINGTON  0440   60     260/  4/  6 1007.1F
ATWATER BUOY     0309   62     240/  6/  6 1007.0R
MILWAUKEE LAKESH 0430   66     240/  8/  9   N/A
S MID LAKE BUOY  0350   53 48  250/ 10/ 10 1007.1F   1
KENOSHA   LAKESH 0400   66     260/  5/  8 1007.1
$$

TC  - TEMPERATURE IN CELSIUS
VSB - VISIBILITY IN STATUTE MILES
WCI - WIND CHILL INDEX
HX  - HEAT INDEX




USA.gov is the U.S. government's official web portal to all federal, state and local government web resources and services.